Погода в Шереганове

Россия / Республика Марий Эл     56°20′26″N   48°42′31″E
темп.,
°C
ветер,
м/с
пор.,
м/с
влажн.,
%
обл.,
%
осадки,
мм/ч
давл.,
гПа
погр.,
м
12 апреля, пн
пн1200:00−1св1197100 0.0 103518
03:00−1св1195100 0.0 103730
06:00+1св2795100 0.0 1038149
09:00+5всв3790100 0.0 1038230
12:00+7в4688100 0.0 1038367
15:00+6в4795100 0.0 1038315
18:00+5всв4997100 0.0 1038236
21:00+3в2997100 0.0 1038170
13 апреля, вт
вт1300:00+4в31194100 0.0 1037236
03:00+3вюв2893100 0.0 1037150
06:00+4юв289476 0.0 1036156
09:00+9ююв368599 0.0 1035280
12:00+14ююв4674100 0.0 1034499
15:00+16ю466787 0.0 1033780
18:00+13ююв368197 0.0 103295
21:00+10ю228648 0.0 103215
14 апреля, ср
ср1400:00+8ю228667 0.0 103113
03:00+6ю22825 0.0 103114
06:00+6ю227621 0.0 103023
09:00+12ю355552 0.0 1030352
12:00+16ю344219 0.0 1028831
15:00+17ю453342 0.0 10271087
18:00+13ююв325444 0.0 102540
21:00+9ю226446 0.0 102510
15 апреля, чт
чт1500:00+8ю227363 0.0 102510
03:00+7ююв228225 0.0 102410
06:00+8ююв11825 0.0 102313
09:00+14ю23615 0.0 1022416
12:00+17ююз34485 0.0 10201210
15:00+18ююз34435 0.0 10181599
18:00+15юз22594 0.0 101711
21:00+11юз12703 0.0 101710
16 апреля, пт
пт1600:00+9юз11790 0.0 101610
03:00+8з11855 0.0 101510
06:00+8сз22763 0.0 101527
09:00+12ссз446061 0.0 1015556
12:00+10с6669100 0.0 1016847
15:00+4ссв61193100 0.0 1018693
18:00+4ссв51183100 0.9 10191030
21:00+4с41075100 1.1 1019948